EA5LR-10 Weather Reports


time (UTC)temp
F
wind
direction
speed
knots
gust
knots
rain 1hr
in
rain 24hr
in
rain mn
in
humidity
%
barometer
mb
20260510181705 71 267 5.2 7.0 0.00 0.00 8.26 62 1012.9
20260510181205 71 132 4.3 7.8 0.00 0.00 8.26 62 1012.9
20260510180704 71 230 4.3 5.2 0.00 0.00 8.26 62 1012.9
20260510180204 71 239 7.0 11.3 0.00 0.00 8.26 61 1012.9
20260510175705 72 240 5.2 7.0 0.00 0.00 8.26 61 1012.9
20260510175205 72 310 5.2 7.8 0.00 0.00 8.26 63 1012.9
20260510174704 72 189 4.3 7.8 0.00 0.00 8.26 63 1012.9
20260510174205 72 232 7.0 11.3 0.00 0.00 8.26 62 1012.7
20260510173704 72 203 6.1 11.3 0.00 0.00 8.26 61 1012.9
20260510173204 72 201 5.2 9.6 0.00 0.00 8.26 59 1013.1
20260510172704 73 223 3.5 5.2 0.00 0.00 8.26 61 1012.9
20260510172204 72 169 4.3 7.0 0.00 0.00 8.26 60 1013.0
20260510171704 72 156 4.3 7.8 0.00 0.00 8.26 64 1012.9
20260510170723 73 155 5.2 7.0 0.00 0.00 8.26 62 1012.7
20260510170223 72 187 4.3 7.0 0.00 0.00 8.26 63 1013.0
20260510153622 71 253 4.3 6.1 0.00 0.00 8.26 71 1013.1
20260510153122 70 281 6.1 7.8 0.00 0.00 8.26 71 1013.1
20260510152622 70 178 6.1 9.6 0.00 0.00 8.26 74 1013.3
20260510150119 71 249 6.1 12.2 0.00 0.00 8.26 76 1013.6
20260510142619 71 78 2.6 5.2 0.00 0.00 8.26 78 1014.0
20260510132618 72 199 4.3 5.2 0.00 0.00 8.26 74 1014.3
20260510125409 70 149 4.3 8.7 0.00 0.00 8.26 79 1014.8
20260510124909 69 133 8.7 9.6 0.00 0.00 8.26 80 1014.8
20260510124409 70 115 8.7 12.2 0.00 0.00 8.26 81 1015.0
20260510123909 70 97 4.3 6.1 0.00 0.00 8.26 81 1014.9
20260510123409 70 101 2.6 2.6 0.00 0.00 8.26 81 1015.0
20260510122909 70 127 4.3 7.0 0.00 0.00 8.26 81 1015.3
20260510122409 70 105 3.5 5.2 0.00 0.00 8.26 81 1015.3
20260510121909 70 132 3.5 5.2 0.00 0.00 8.26 80 1015.3
20260510121409 70 219 3.5 6.1 0.00 0.00 8.26 80 1015.5
20260510120909 70 182 3.5 4.3 0.00 0.00 8.26 79 1015.6
20260510120409 70 215 0.9 1.7 0.00 0.00 8.26 79 1015.7
20260510115909 70 160 0.9 1.7 0.00 0.00 8.26 80 1015.8
20260510115409 70 194 2.6 5.2 0.00 0.00 8.26 80 1015.8
20260510114909 70 136 2.6 7.0 0.00 0.00 8.26 80 1015.8
20260510114409 69 177 1.7 1.7 0.00 0.00 8.26 83 1015.8
20260510113619 68 155 3.5 7.0 0.00 0.00 8.26 84 1016.0
20260510113119 68 131 3.5 5.2 0.00 0.00 8.26 84 1016.1
20260510112619 68 113 3.5 4.3 0.00 0.00 8.26 84 1016.1
20260510112119 67 125 4.3 6.1 0.00 0.00 8.26 84 1016.4
20260510111619 68 123 3.5 6.1 0.00 0.00 8.26 83 1016.4
20260510111119 68 121 2.6 5.2 0.00 0.00 8.26 84 1016.4
20260510110119 67 126 5.2 7.0 0.00 0.00 8.26 82 1016.5
20260510105619 68 107 1.7 2.6 0.00 0.00 8.26 82 1016.6
20260510105119 68 116 0.9 1.7 0.00 0.00 8.26 82 1016.5
20260510104619 68 103 4.3 7.8 0.00 0.00 8.26 81 1016.5
20260510104119 68 172 0.9 2.6 0.00 0.00 8.26 80 1016.7
20260510103619 67 150 3.5 5.2 0.00 0.00 8.26 80 1016.6
20260510103119 67 111 3.5 5.2 0.00 0.00 8.26 79 1016.5
20260510102616 67 138 1.7 1.7 0.00 0.00 8.26 79 1016.6
20260510102116 67 118 0.9 1.7 0.00 0.00 8.26 80 1016.6
20260510101616 67 118 0.9 1.7 0.00 0.00 8.26 80 1016.6
20260510101116 67 89 3.5 4.3 0.00 0.00 8.26 80 1016.5
20260510100616 67 91 2.6 4.3 0.00 0.00 8.26 78 1016.5
20260510100116 67 137 3.5 5.2 0.00 0.00 8.26 77 1016.5
20260510095616 67 73 4.3 5.2 0.00 0.00 8.26 77 1016.5
20260510095116 67 90 3.5 4.3 0.00 0.00 8.26 78 1016.4
20260510094616 67 80 4.3 5.2 0.00 0.00 8.26 78 1016.5
20260510094116 67 81 0.9 1.7 0.00 0.00 8.26 79 1016.5
20260510093616 67 135 3.5 5.2 0.00 0.00 8.26 79 1016.4
20260510093116 67 100 2.6 4.3 0.00 0.00 8.26 78 1016.6
20260510092616 66 91 5.2 6.1 0.00 0.00 8.26 77 1016.3
20260510092116 67 122 3.5 5.2 0.00 0.00 8.26 77 1016.4
20260510091616 67 91 3.5 5.2 0.00 0.00 8.26 76 1016.4
20260510091116 67 111 2.6 4.3 0.00 0.00 8.26 77 1016.4
20260510090546 67 92 2.6 2.6 0.00 0.00 8.26 77 1016.4
20260510090046 68 117 2.6 2.6 0.00 0.00 8.26 77 1016.5
20260510084742 67 119 0.9 1.7 0.00 0.00 8.26 79 1016.5
20260510084242 68 117 4.3 5.2 0.00 0.00 8.26 77 1016.6
20260510082739 68 163 0.0 0.0 0.00 0.00 8.26 76 1016.7
20260510082234 68 164 0.9 0.9 0.00 0.00 8.26 76 1016.7
20260510081734 67 164 1.7 1.7 0.00 0.00 8.26 77 1016.6
20260510080115 67 272 0.9 0.9 0.00 0.00 8.26 77 1016.8
20260510075615 66 271 0.9 0.9 0.00 0.00 8.26 78 1016.8
20260510074621 66 271 0.0 0.9 0.00 0.00 8.26 78 1016.7
20260510074121 66 271 0.0 0.9 0.00 0.00 8.26 79 1016.8
20260510073621 65 271 0.0 0.0 0.00 0.00 8.26 79 1017.0
20260510073121 66 274 0.0 0.0 0.00 0.00 8.26 78 1017.0
20260510072621 66 274 0.0 0.0 0.00 0.00 8.26 79 1016.9
20260510072121 65 274 0.0 0.0 0.00 0.00 8.26 81 1016.9
20260510071621 64 275 0.9 0.9 0.00 0.00 8.26 82 1016.8
20260510071121 63 274 0.9 0.9 0.00 0.00 8.26 82 1016.6
20260510070621 63 275 0.9 0.9 0.00 0.00 8.26 83 1016.6
20260510070121 63 275 0.9 1.7 0.00 0.00 8.26 84 1016.6
20260510065619 62 275 0.9 1.7 0.00 0.00 8.26 85 1016.3
20260510065119 63 263 1.7 1.7 0.00 0.00 8.26 85 1016.6
20260510064619 63 263 1.7 1.7 0.00 0.00 8.26 86 1016.5
20260510064119 62 263 1.7 1.7 0.00 0.00 8.26 86 1016.4
20260510063619 62 263 0.0 0.9 0.00 0.00 8.26 87 1016.4
20260510063119 62 263 0.9 0.9 0.00 0.00 8.26 86 1016.5
20260510062619 62 263 0.0 0.0 0.00 0.00 8.26 87 1016.4
20260510062119 62 263 0.0 0.9 0.00 0.00 8.26 87 1016.5
20260510061619 62 263 0.0 0.9 0.00 0.00 8.26 87 1016.4
20260510061119 62 263 0.9 0.9 0.00 0.00 8.26 88 1016.7
20260510060619 62 263 0.0 0.0 0.00 0.00 8.26 88 1016.2
20260510060119 62 263 0.0 0.9 0.00 0.00 8.26 88 1016.4
20260510055619 62 263 0.0 0.0 0.00 0.00 8.26 89 1016.2
20260510055119 61 262 0.0 0.0 0.00 0.00 8.26 90 1016.3
20260510054619 61 262 0.0 0.0 0.00 0.00 8.26 90 1016.4
20260510054119 60 262 0.9 0.9 0.00 0.00 8.26 90 1016.2
20260510053619 60 262 0.0 0.0 0.00 0.00 8.26 90 1016.2
20260510053117 60 262 0.0 0.0 0.00 0.00 8.26 91 1016.2
20260510052617 60 262 0.0 0.0 0.00 0.00 8.26 91 1016.1
20260510052117 60 262 0.0 0.0 0.00 0.00 8.26 91 1016.0
20260510051617 60 262 0.9 0.9 0.00 0.00 8.26 91 1016.0
20260510051117 60 262 0.0 0.9 0.00 0.00 8.26 92 1016.0
20260510050617 59 262 0.0 0.0 0.00 0.00 8.26 92 1015.8
20260510050117 59 262 0.0 0.0 0.00 0.00 8.26 91 1015.9
20260510045617 59 262 0.9 0.9 0.00 0.00 8.26 91 1015.9
20260510045117 59 262 0.0 0.0 0.00 0.00 8.26 91 1015.9
20260510044617 59 262 0.9 1.7 0.00 0.00 8.26 91 1015.9
20260510044117 59 262 0.9 0.9 0.00 0.00 8.26 91 1015.8
20260510043617 60 262 1.7 1.7 0.00 0.00 8.26 91 1016.1
20260510043117 60 262 0.9 0.9 0.00 0.00 8.26 91 1015.8
20260510042617 60 256 0.9 0.9 0.00 0.00 8.26 91 1015.9
20260510042117 60 256 0.9 0.9 0.00 0.00 8.26 91 1015.8
20260510041617 60 256 0.9 1.7 0.00 0.00 8.26 91 1015.7
20260510041117 60 256 0.9 0.9 0.00 0.00 8.26 91 1015.8
20260510040617 60 256 0.9 0.9 0.00 0.00 8.26 91 1015.6
20260510040117 60 256 0.9 0.9 0.00 0.00 8.26 91 1015.7
20260510035615 60 256 0.9 1.7 0.00 0.00 8.26 91 1015.6
20260510035115 60 256 0.9 0.9 0.00 0.00 8.26 91 1015.9
20260510034615 60 256 0.9 1.7 0.00 0.00 8.26 91 1015.7
20260510034115 60 256 0.0 0.9 0.00 0.00 8.26 91 1015.9
20260510033615 60 256 0.0 0.9 0.00 0.00 8.26 91 1015.7
20260510033115 60 256 0.9 0.9 0.00 0.00 8.26 91 1015.9
20260510032615 60 256 0.0 0.9 0.00 0.00 8.26 91 1015.8
20260510032115 60 256 0.9 1.7 0.00 0.00 8.26 91 1015.8
20260510031615 60 256 0.0 0.9 0.00 0.00 8.26 91 1015.7
20260510031115 60 256 0.9 0.9 0.00 0.00 8.26 91 1015.7
20260510030615 60 256 0.0 0.9 0.00 0.00 8.26 92 1015.6
20260510030115 60 256 1.7 1.7 0.00 0.00 8.26 92 1015.7
20260510025615 60 256 0.9 0.9 0.00 0.00 8.26 92 1015.7
20260510025115 60 256 0.9 0.9 0.00 0.00 8.26 92 1015.8
20260510024616 60 256 0.0 0.0 0.00 0.00 8.26 92 1015.8
20260510024115 60 256 1.7 1.7 0.00 0.00 8.26 91 1015.5
20260510023615 60 256 0.9 1.7 0.00 0.00 8.26 91 1015.5
20260510023115 60 256 0.9 0.9 0.00 0.00 8.26 91 1015.7
20260510022615 60 256 2.6 2.6 0.00 0.00 8.26 91 1015.6
20260510022115 60 256 1.7 1.7 0.00 0.00 8.26 91 1015.6
20260510021615 60 256 0.0 0.9 0.00 0.00 8.26 90 1015.4
20260510021115 60 256 1.7 1.7 0.00 0.00 8.26 90 1015.4
20260510020614 60 253 0.9 0.9 0.00 0.00 8.26 90 1015.3
20260510020114 60 246 1.7 1.7 0.00 0.00 8.26 90 1015.4
20260510015614 60 245 0.9 1.7 0.00 0.00 8.26 90 1015.5
20260510015114 60 245 0.9 0.9 0.00 0.00 8.26 91 1015.5
20260510014614 60 245 0.0 0.0 0.00 0.00 8.26 91 1015.3
20260510014114 61 245 0.0 0.0 0.00 0.00 8.26 91 1015.4
20260510013614 61 245 0.9 0.9 0.00 0.00 8.26 91 1015.2
20260510013114 61 245 1.7 1.7 0.00 0.00 8.26 90 1015.2
20260510012614 61 245 0.9 1.7 0.00 0.00 8.26 90 1015.5
20260510012114 61 245 0.9 0.9 0.00 0.00 8.26 90 1015.5
20260510011613 62 245 0.0 0.0 0.00 0.00 8.26 90 1015.4
20260510011113 62 245 0.0 0.9 0.00 0.00 8.26 90 1015.4
20260510010613 62 245 0.9 0.9 0.00 0.00 8.26 90 1015.4
20260510010113 62 245 0.0 0.9 0.00 0.00 8.26 91 1015.7
20260510005613 62 245 0.0 0.0 0.00 0.00 8.26 91 1015.6
20260510005113 62 245 0.0 0.0 0.00 0.00 8.26 91 1015.6
20260510004613 62 245 0.0 0.0 0.00 0.00 8.26 91 1015.7
20260510004112 62 245 0.0 0.0 0.00 0.00 8.26 91 1015.9
20260510003612 62 245 0.9 0.9 0.00 0.00 8.26 91 1015.8
20260510003112 62 245 0.0 0.9 0.00 0.00 8.26 90 1015.5
20260510002612 63 245 0.0 0.9 0.00 0.00 8.26 90 1015.8
20260510002112 63 245 0.9 0.9 0.00 0.00 8.26 90 1015.8
20260510001613 63 245 0.0 0.0 0.00 0.00 8.26 90 1015.7
20260510001112 63 245 1.7 1.7 0.00 0.00 8.26 90 1016.0
20260510000612 63 244 0.9 1.7 0.00 0.00 8.26 90 1015.9
20260510000112 63 244 0.0 0.0 0.00 0.00 8.26 89 1015.8
20260509235612 64 244 0.0 0.0 0.00 0.00 8.26 89 1015.9
20260509235111 64 244 1.7 1.7 0.00 0.00 8.26 89 1016.1
20260509234611 64 235 0.0 0.9 0.00 0.00 8.26 89 1016.0
20260509234111 64 206 2.6 2.6 0.00 0.00 8.26 89 1016.2
20260509233611 64 245 0.9 0.9 0.00 0.00 8.26 89 1016.1
20260509233111 64 241 0.9 1.7 0.00 0.00 8.26 89 1016.2
20260509232611 64 203 1.7 2.6 0.00 0.00 8.26 88 1016.0
20260509232111 64 236 0.9 1.7 0.00 0.00 8.26 88 1016.1
20260509231611 64 238 1.7 1.7 0.00 0.00 8.26 88 1016.2
20260509231111 64 210 1.7 2.6 0.00 0.00 8.26 88 1016.1
20260509230611 64 199 0.9 1.7 0.00 0.00 8.26 88 1016.2
20260509230111 64 218 1.7 4.3 0.00 0.00 8.26 88 1016.1
20260509225611 64 231 1.7 2.6 0.00 0.00 8.26 87 1016.2
20260509225111 64 157 4.3 7.0 0.00 0.00 8.26 87 1016.3
20260509224611 64 224 1.7 1.7 0.00 0.00 8.26 87 1016.4
20260509224111 65 213 0.9 1.7 0.00 0.00 8.26 87 1016.3
20260509223611 65 157 1.7 2.6 0.00 0.00 8.26 87 1016.2
20260509223111 65 241 1.7 2.6 0.00 0.00 8.26 86 1016.2
20260509222609 65 245 1.7 2.6 0.00 0.00 8.26 86 1016.4
20260509222109 65 207 3.5 6.1 0.00 0.00 8.26 86 1016.1
20260509221609 65 212 4.3 6.1 0.00 0.00 8.26 86 1016.1
20260509221109 65 173 2.6 5.2 0.00 0.00 8.26 85 1016.1
20260509220609 65 253 1.7 4.3 0.00 0.00 8.26 85 1016.3
20260509220109 65 187 0.9 2.6 0.00 0.00 8.26 85 1016.3
20260509215609 65 177 0.9 1.7 0.00 0.51 8.26 85 1016.4
20260509215109 64 184 1.7 2.6 0.00 0.51 8.26 84 1016.4
20260509214609 65 188 0.9 1.7 0.00 0.51 8.26 84 1016.3
20260509214109 65 198 0.9 1.7 0.00 0.51 8.26 83 1016.2
20260509213609 65 191 0.0 0.0 0.00 0.51 8.26 82 1016.3
20260509213109 65 208 3.5 5.2 0.00 0.51 8.26 82 1016.3
20260509212609 65 171 1.7 2.6 0.00 0.51 8.26 82 1016.2
20260509212109 65 206 0.9 0.9 0.00 0.51 8.26 81 1016.1
20260509211608 65 245 5.2 7.8 0.00 0.51 8.26 80 1016.3